Tracking 19250 objects as of 23-Sep-2018
HD Live streaming from Space Station
objects crossing your sky now

FENGYUN 1C DEB

Track FENGYUN 1C DEB now!
10-day predictions


NORAD ID: 33727
Int'l Code: 1999-025DHQ
Perigee: 674.5 km
Apogee: 721.9 km
Inclination: 99.8 °
Period: 98.6 minutes
Semi major axis: 7069 km
RCS: 0.003 m2 (small)
Launch date: May 10, 1999
Source: People's Republic of China (PRC)
Launch site: Taiyaun Space Center, China (TSC)

Note: This is SATELLITE DEBRIS
aabbcc
Your satellite tracking list
Your tracking list is empty




NASA's NSSDC Master Catalog

Two Line Element Set (TLE):
1 33727U 99025DHQ 18264.88083045 +.00002493 +00000-0 +52121-3 0  9996
2 33727 099.7505 154.7444 0033537 318.0085 041.8540 14.60657709573792
Source of the keplerian elements: AFSPC